Location: Chiroubles
(46.1812°N, 4.6660°E)
Time: 03:36:42
(UTC+00:00)

NOSS 3-2 (A) - Pass Details

Date: 15 August 2020
Orbit: 795 x 1413 km, 63.4° (Epoch: 22 September)

Event Time Altitude Azimuth Distance (km) Brightness Sun altitude
Rises 19:47:39 0° 213° (SSW) 3,341 6.3 -9.8°
Reaches altitude 10° 19:49:58 10° 212° (SSW) 2,453 5.6 -10.1°
Maximum altitude 19:55:36 81° 126° (SE) 928 3.3 -11.0°
Drops below altitude 10° 20:02:06 10° 40° (NE) 2,811 5.9 -11.9°
Sets 20:04:55 0° 40° (NE) 3,863 6.6 -12.3°
